Bartlesville, OK

2:40 AM CST on November 18, 2019 (GMT -0600)
Bartlesville Municipal

Weather History for KBVO - October, 2019

Change the Weather History Date:

Sunday, October 20, 2019

  Actual Average Record
Temperature  
Mean Temperature 60 °F -  
Max Temperature 78 °F 72 °F 91 °F (2003)
Min Temperature 41 °F 45 °F 25 °F (1989)
Degree Days  
Heating Degree Days 6    
Growing Degree Days 10 (Base 50)    
Moisture  
Dew Point 47 °F    
Average Humidity 86    
Maximum Humidity 100    
Minimum Humidity 39    
Precipitation  
Precipitation 0.11 in - - ()
Sea Level Pressure  
Sea Level Pressure 29.76 in    
Wind  
Wind Speed 2 mph ()    
Max Wind Speed 18 mph    
Max Gust Speed 31 mph    
Visibility 4.4 miles    
Events Fog , Rain , Thunderstorm    
Averages and records for this station are not official NWS values.
T = Trace of Precipitation, MM = Missing Value Source: Averaged Metar Reports

Daily Weather History Graph

Daily Weather History Graph

Search for Another Location

Airport or City:

Astronomy

Oct. 20, 2019 Rise Set
Actual Time 7:35 AM CDT 6:41 PM CDT
Civil Twilight 7:09 AM CDT 7:07 PM CDT
Nautical Twilight 6:39 AM CDT 7:37 PM CDT
Astronomical Twilight 6:09 AM CDT 8:07 PM CDT
Moon 11:57 PM CDT (10/20) 1:58 PM CDT (10/20)
Length of Visible Light 11h 57m
Length of Day
11h 05m
Waning Gibbous, 59% of the Moon is Illuminated
Oct 20
Waning Gibbous
Oct 21
Last Quarter
Oct 27
New
Nov 4
First Quarter
Nov 12
Full

Hourly Weather History & Observations

Time (CDT) Temp. Dew Point Humidity Pressure Visibility Wind Dir Wind Speed Gust Speed Precip Events Conditions
12:53 AM 45.0 °F 43.0 °F 93% 29.83 in 3.0 mi Calm Calm - N/A   Clear
1:02 AM 46.0 °F 43.0 °F 89% 29.85 in 2.5 mi Calm Calm - N/A   Clear
1:19 AM 44.1 °F 43.0 °F 96% 29.84 in 0.8 mi Calm Calm - N/A   Clear
1:29 AM 44.1 °F 42.1 °F 93% 29.84 in 2.5 mi Calm Calm - N/A   Clear
1:36 AM 43.0 °F 42.1 °F 97% 29.84 in 7.0 mi Calm Calm - N/A   Clear
1:53 AM 44.1 °F 41.0 °F 89% 29.83 in 3.0 mi Calm Calm - N/A   Clear
1:56 AM 44.1 °F 41.0 °F 89% 29.84 in 1.8 mi Calm Calm - N/A   Clear
2:04 AM 43.0 °F 41.0 °F 93% 29.84 in 2.0 mi Calm Calm - N/A   Clear
2:13 AM 44.1 °F 42.1 °F 93% 29.84 in 1.2 mi Calm Calm - N/A   Clear
2:20 AM 44.1 °F 42.1 °F 93% 29.85 in 4.0 mi Calm Calm - N/A   Clear
2:53 AM 42.1 °F 39.9 °F 92% 29.83 in 9.0 mi Calm Calm - N/A   Clear
3:09 AM 43.0 °F 39.9 °F 89% 29.85 in 1.8 mi Calm Calm - N/A   Clear
3:24 AM 43.0 °F 41.0 °F 93% 29.85 in 2.0 mi Calm Calm - N/A   Partly Cloudy
3:40 AM 42.1 °F 39.9 °F 92% 29.84 in 8.0 mi Calm Calm - N/A   Partly Cloudy
3:46 AM 42.1 °F 39.9 °F 92% 29.84 in 1.8 mi Calm Calm - N/A   Scattered Clouds
3:53 AM 42.1 °F 39.9 °F 92% 29.83 in 1.5 mi Calm Calm - N/A   Scattered Clouds
3:57 AM 43.0 °F 39.9 °F 89% 29.84 in 3.0 mi Calm Calm - N/A   Partly Cloudy
4:04 AM 43.0 °F 39.9 °F 89% 29.84 in 1.5 mi Calm Calm - N/A   Partly Cloudy
4:08 AM 42.1 °F 39.9 °F 92% 29.84 in 0.8 mi Calm Calm - N/A   Mist
4:16 AM 43.0 °F 39.9 °F 89% 29.84 in 0.5 mi Calm Calm - N/A Fog Fog
4:23 AM 42.1 °F 39.9 °F 92% 29.83 in 1.0 mi Calm Calm - N/A   Mist
4:26 AM 42.1 °F 39.9 °F 92% 29.83 in 2.5 mi Calm Calm - N/A   Partly Cloudy
4:38 AM 41.0 °F 39.0 °F 93% 29.83 in 1.5 mi Calm Calm - N/A   Scattered Clouds
4:43 AM 41.0 °F 39.0 °F 93% 29.83 in 0.8 mi Calm Calm - N/A   Mist
4:49 AM 42.8 °F 39.2 °F 87% 29.83 in 1.2 mi Calm Calm - N/A   Partly Cloudy
4:53 AM 42.1 °F 39.9 °F 92% 29.81 in 1.2 mi Calm Calm - N/A   Scattered Clouds
4:57 AM 41.0 °F 39.0 °F 93% 29.83 in 0.8 mi Calm Calm - N/A   Mist
5:03 AM 41.0 °F 39.0 °F 93% 29.83 in 1.2 mi Calm Calm - N/A   Scattered Clouds
5:06 AM 41.0 °F 39.0 °F 93% 29.84 in 3.0 mi Calm Calm - N/A   Mostly Cloudy
5:50 AM 42.8 °F 39.2 °F 87% 29.83 in 2.0 mi Calm Calm - N/A   Overcast
5:53 AM 42.1 °F 39.9 °F 92% 29.81 in 1.8 mi Calm Calm - N/A   Overcast
6:10 AM 42.1 °F 39.9 °F 92% 29.84 in 0.5 mi Calm Calm - N/A Fog Fog
6:27 AM 42.1 °F 39.9 °F 92% 29.83 in 1.0 mi Calm Calm - N/A   Mist
6:42 AM 42.1 °F 39.9 °F 92% 29.83 in 3.0 mi Calm Calm - N/A   Overcast
6:53 AM 42.1 °F 39.9 °F 92% 29.82 in 1.5 mi Calm Calm - N/A   Overcast
6:56 AM 42.1 °F 39.9 °F 92% 29.83 in 0.5 mi Calm Calm - N/A Fog Fog
7:04 AM 42.1 °F 39.9 °F 92% 29.83 in 0.2 mi Calm Calm - N/A Fog Fog
7:53 AM 42.1 °F 39.9 °F 92% 29.82 in 0.2 mi Calm Calm - N/A Fog Fog
8:53 AM 48.0 °F 46.9 °F 96% 29.82 in 0.2 mi Calm Calm - N/A Fog Fog
9:17 AM 51.1 °F 51.1 °F 100% 29.83 in 0.8 mi South 3.5 mph - N/A   Mist
9:26 AM 52.0 °F 52.0 °F 100% 29.83 in 2.0 mi South 4.6 mph - N/A   Overcast
9:37 AM 53.1 °F 53.1 °F 100% 29.82 in 4.0 mi South 5.8 mph - N/A   Mostly Cloudy
9:45 AM 54.0 °F 53.1 °F 97% 29.82 in 5.0 mi South 5.8 mph - N/A   Scattered Clouds
9:53 AM 55.0 °F 54.0 °F 96% 29.81 in 5.0 mi SSE 6.9 mph - N/A   Partly Cloudy
10:53 AM 64.9 °F 57.9 °F 78% 29.79 in 10.0 mi South 5.8 mph - N/A   Clear
11:53 AM 70.0 °F 57.9 °F 65% 29.77 in 10.0 mi SSE 11.5 mph - N/A   Clear
12:53 PM 73.0 °F 55.9 °F 55% 29.73 in 10.0 mi SSE 18.4 mph 25.3 mph N/A   Clear
1:53 PM 75.0 °F 55.9 °F 51% 29.68 in 10.0 mi SSE 17.3 mph 20.7 mph N/A   Clear
2:53 PM 77.0 °F 53.1 °F 43% 29.63 in 10.0 mi SSE 13.8 mph - N/A   Clear
3:53 PM 78.1 °F 53.1 °F 42% 29.60 in 10.0 mi SSE 17.3 mph 23.0 mph N/A   Clear
4:53 PM 77.0 °F 50.0 °F 39% 29.59 in 10.0 mi South 12.7 mph 25.3 mph N/A   Clear
6:53 PM 68.0 °F 52.0 °F 56% 29.60 in 10.0 mi SE 4.6 mph - N/A   Clear
7:53 PM 64.0 °F 54.0 °F 70% 29.59 in 10.0 mi South 4.6 mph - N/A   Clear
8:53 PM 66.9 °F 57.9 °F 73% 29.53 in 10.0 mi SSE 8.1 mph - N/A   Clear
9:39 PM 68.0 °F 59.0 °F 73% 29.48 in 10.0 mi SE 16.1 mph 25.3 mph 0.00 in Rain , Thunderstorm Light Rain
9:53 PM 68.0 °F 59.0 °F 73% 29.46 in 10.0 mi SSE 18.4 mph 31.1 mph 0.00 in Rain , Thunderstorm Light Rain
10:09 PM 66.0 °F 60.1 °F 81% 29.52 in 10.0 mi South 15.0 mph 24.2 mph 0.01 in Rain , Thunderstorm Light Thunderstorms and Rain
10:26 PM 62.1 °F 57.9 °F 86% 29.60 in 8.0 mi SSW 15.0 mph 25.3 mph 0.04 in Rain , Thunderstorm Rain
10:34 PM 61.0 °F 57.9 °F 90% 29.59 in 3.0 mi WSW 6.9 mph 25.3 mph 0.08 in Rain , Thunderstorm Heavy Rain
10:42 PM 61.0 °F 59.0 °F 93% 29.59 in 5.0 mi SW 6.9 mph - 0.09 in Rain , Thunderstorm Light Thunderstorms and Rain
10:53 PM 62.1 °F 59.0 °F 90% 29.54 in 8.0 mi Variable 4.6 mph - 0.10 in Rain , Thunderstorm Light Thunderstorms and Rain
11:00 PM 62.1 °F 59.0 °F 90% 29.55 in 9.0 mi Calm Calm - 0.00 in Rain , Thunderstorm Light Rain
11:32 PM 62.1 °F 60.1 °F 93% 29.56 in 10.0 mi WNW 4.6 mph - 0.00 in   Partly Cloudy
11:53 PM 61.0 °F 57.9 °F 90% 29.54 in 10.0 mi Variable 3.5 mph - 0.01 in   Clear